Simultaneous Nadir Overpasses (SNOs) Predictions

Prediction of SNOs between METOP-C and LANDSAT-8 Satellite Orbit:

Table of predicted SNOs for the next 14.0 days since TLE Epoch: 4/26/2025
Index Date (METOP-C) Time (METOP-C) Lat,Lon (METOP-C) SZA (METOP-C ) Date (LANDSAT-8) Time (LANDSAT-8) Lat,Lon (LANDSAT-8) SZA (LANDSAT-8 ) Distance(km) Time Diff (sec)
1 04/27/2025 20:47:01 81.03, -93.94 68.90 04/27/2025 20:48:10 81.03, -94.09 68.91 2.59 69
2 04/27/2025 21:37:41 -81.05, 73.81 111.06 04/27/2025 21:37:36 -81.05, 73.85 111.06 0.69 5
3 04/30/2025 16:21:27 81.02, -27.87 68.00 04/30/2025 16:22:25 81.02, -27.81 68.02 1.06 58
4 04/30/2025 17:12:05 -81.07, 140.62 111.87 04/30/2025 17:11:50 -81.06, 140.50 111.89 2.05 15
5 05/03/2025 11:55:52 81.03, 38.82 67.21 05/03/2025 11:56:39 81.04, 38.90 67.24 1.45 47
6 05/03/2025 12:46:31 -81.06,-153.06 112.70 05/03/2025 12:46:05 -81.06,-153.12 112.72 1.17 26
7 05/06/2025 07:30:17 81.04, 105.40 66.44 05/06/2025 07:30:53 81.04, 105.33 66.45 1.16 36
8 05/06/2025 08:20:57 -81.05, -86.85 113.52 05/06/2025 08:20:19 -81.06, -86.67 113.51 3.25 38
9 05/09/2025 03:04:41 81.04, 171.86 65.69 05/09/2025 03:05:05 81.04, 171.85 65.70 0.25 24



Historial Predications of SNOs between METOP-C and LANDSAT-8
